This is the latest recevied weather packets stored in our database for station/object KN6WGU. If no packets are shown the sender has not sent any weather packets the latest 10 day(s).
| Time | Temp. | Humidity | Pressure | Rain* | Wind** | Luminosity | Snow |
|---|---|---|---|---|---|---|---|
| 1778190014 | 13.33° C | 48% | 1005.8 hPa | 0 mm | - | 68 W/m² | - |
| 1778189710 | 13.33° C | 49% | 1005.5 hPa | 0 mm | - | 61 W/m² | - |
| 1778189407 | 13.33° C | 47% | 1005.8 hPa | 0 mm | - | 78 W/m² | - |
| 1778189102 | 13.33° C | 48% | 1005.6 hPa | 0 mm | - | 61 W/m² | - |
| 1778188800 | 13.33° C | 47% | 1005.7 hPa | 0 mm | - | 78 W/m² | - |
| 1778188496 | 13.33° C | 47% | 1005.6 hPa | 0 mm | - | 121 W/m² | - |
| 1778188193 | 13.33° C | 45% | 1005.6 hPa | 0 mm | - | 67 W/m² | - |
| 1778187890 | 13.33° C | 44% | 1005.6 hPa | 0 mm | - | 66 W/m² | - |
| 1778187587 | 13.33° C | 46% | 1005.7 hPa | 0 mm | - | 94 W/m² | - |
| 1778187283 | 13.89° C | 48% | 1005.5 hPa | 0 mm | - | 175 W/m² | - |
| 1778186980 | 13.89° C | 49% | 1005.3 hPa | 0 mm | - | 272 W/m² | - |
| 1778186676 | 13.89° C | 52% | 1005.5 hPa | 0 mm | - | 218 W/m² | - |
| 1778186374 | 13.89° C | 51% | 1005.5 hPa | 0 mm | - | 105 W/m² | - |
| 1778186067 | 14.44° C | 52% | 1005.4 hPa | 0 mm | - | 131 W/m² | - |
| 1778185762 | 14.44° C | 50% | 1005.5 hPa | 0 mm | - | 512 W/m² | - |
| 1778185459 | 15° C | 51% | 1005.5 hPa | 0 mm | - | 527 W/m² | - |
| 1778185154 | 15.56° C | 51% | 1005.3 hPa | 0 mm | - | 539 W/m² | - |
| 1778184850 | 15.56° C | 50% | 1005.3 hPa | 0 mm | - | 550 W/m² | - |
| 1778184547 | 15° C | 53% | 1005.6 hPa | 0 mm | - | 557 W/m² | - |
| 1778184242 | 12.78° C | 57% | 1005.6 hPa | 0 mm | - | 586 W/m² | - |
| 1778183938 | 12.22° C | 57% | 1005.5 hPa | 0 mm | - | 212 W/m² | - |
| 1778183636 | 12.78° C | 56% | 1005.3 hPa | 0 mm | - | 131 W/m² | - |
| 1778183333 | 12.78° C | 57% | 1005.8 hPa | 0 mm | - | 121 W/m² | - |
| 1778183029 | 12.22° C | 57% | 1005.5 hPa | 0 mm | - | 135 W/m² | - |
| 1778182726 | 12.22° C | 57% | 1005.4 hPa | 0 mm | - | 138 W/m² | - |
* Rain latest hour (hover to see other rain measurements)
** Current wind speed in m/s (hover to see current wind gust speed)